This demonstration page uses our WeatherBlox Daily Observations layout. Learn more.

Left ArrowRight Arrow

Hourly Observations for August 17, 2022

Temp ( °F °C ) Dew Point ( °F °C ) Humidity (%) Winds ( mph kmh ) Pressure ( in mb ) Visibility ( mi km ) Precip ( " mm )
12:53 am 00:53 Mostly Cloudy 73 22.8 66 18.9 79 79 NNE 3 6 29.92 1013 10 16 0.00 0.00
3:08 am 03:08 Cloudy 74 23.3 68 20 82 82 ENE 5 7 29.91 1013 10 16 0.00 0.00
3:53 am 03:53 Cloudy 73 22.8 68 20 84 84 NE 6 9 29.91 1013 10 16 0.00 0.00
4:53 am 04:53 Mostly Cloudy 73 22.8 68 20 84 84 NE 3 6 29.92 1013 10 16 0.00 0.00
5:27 am 05:27 Cloudy 73 22.8 68 20 84 84 ENE 5 7 29.92 1013 10 16 0.00 0.00
5:53 am 05:53 Cloudy 73 22.8 68 20 84 84 E 6 9 29.92 1013 10 16 0.00 0.00
6:53 am 06:53 Cloudy 73 22.8 67 19.4 81 81 E 5 7 29.94 1014 10 16 0.00 0.00
7:53 am 07:53 Cloudy 72 22.2 68 20 87 87 ENE 7 11 29.97 1015 10 16 0.00 0.00
8:35 am 08:35 Cloudy 73 22.8 67 19.4 81 81 SE 3 6 29.98 1015 10 16 0.00 0.00
8:42 am 08:42 Cloudy 73 22.8 67 19.4 81 81 E 3 6 29.98 1015 10 16 0.00 0.00
8:53 am 08:53 Cloudy 73 22.8 67 19.4 81 81 ESE 3 6 29.98 1015 10 16 0.00 0.00
9:53 am 09:53 Cloudy with Light Rain 72 22.2 69 20.6 91 91 SSE 3 6 29.99 1016 6 10 0.02 0.51
10:53 am 10:53 Cloudy 72 22.2 68 20 87 87 E 8 13 30.00 1016 10 16 0.04 1.02
11:53 am 11:53 Mostly Cloudy 75 23.9 68 20 79 79 ENE 7 11 30.00 1016 10 16 0.00 0.00
12:10 pm 12:10 Cloudy 75 23.9 66 18.9 74 74 E 7 11 30.00 1016 10 16 0.00 0.00
12:18 pm 12:18 Cloudy 75 23.9 67 19.4 76 76 ENE 7 11 30.00 1016 10 16 0.00 0.00
12:53 pm 12:53 Mostly Cloudy 76 24.4 67 19.4 74 74 VRB 6 9 29.99 1016 10 16 0.00 0.00
1:19 pm 13:19 Mostly Cloudy 78 25.6 67 19.4 69 69 ENE 5 7 29.98 1015 10 16 0.00 0.00
1:53 pm 13:53 Mostly Sunny 78 25.6 67 19.4 69 69 Calm 29.98 1015 10 16 0.00 0.00
2:53 pm 14:53 Mostly Cloudy 80 26.7 66 18.9 62 62 NW 3 6 29.97 1015 10 16 0.00 0.00
3:53 pm 15:53 Mostly Sunny 80 26.7 67 19.4 64 64 SSE 5 7 29.95 1014 10 16 0.00 0.00
4:53 pm 16:53 Mostly Cloudy 80 26.7 67 19.4 64 64 E 3 6 29.93 1014 10 16 0.00 0.00
5:53 pm 17:53 Sunny 81 27.2 67 19.4 62 62 NW 3 6 29.93 1014 10 16 0.00 0.00
6:53 pm 18:53 Partly Cloudy 80 26.7 67 19.4 64 64 Calm 29.92 1013 10 16 0.00 0.00
7:53 pm 19:53 Mostly Cloudy 79 26.1 66 18.9 65 65 SW 5 7 29.92 1013 10 16 0.00 0.00
8:53 pm 20:53 Cloudy 78 25.6 68 20 71 71 S 3 6 29.94 1014 10 16 0.00 0.00
9:53 pm 21:53 Mostly Cloudy 74 23.3 68 20 82 82 NE 7 11 29.96 1015 10 16 0.00 0.00
10:53 pm 22:53 Cloudy 73 22.8 69 20.6 87 87 NNE 5 7 29.97 1015 10 16 0.00 0.00
11:53 pm 23:53 Cloudy 71 21.7 65 18.3 81 81 SSE 6 9 29.97 1015 10 16 0.00 0.00

Powered by AerisWeather